K2AS-13 Weather Reports


time (UTC)temp
C
wind
direction
speed
KPH
gust
KPH
rain 1hr
cm
rain 24hr
cm
rain mn
cm
humidity
%
barometer
mb
20260507060016 5 0.0 0.0 0.00 1.19 0.00 88 1011.0
20260507055016 6 0.0 0.0 0.00 1.24 0.00 87 1011.0
20260507054036 6 0.0 0.0 0.00 1.27 0.00 83 1011.2
20260507053016 6 248 1.6 6.4 0.00 1.32 0.00 78 1011.2
20260507052016 6 270 4.8 11.3 0.00 1.37 0.00 77 1011.2
20260507051016 6 270 3.2 9.7 0.00 1.40 0.00 77 1011.4
20260507050015 6 270 3.2 11.3 0.00 1.45 0.00 76 1011.3
20260507045015 6 270 3.2 12.9 0.00 1.50 0.00 76 1011.3
20260507044015 6 270 3.2 12.9 0.03 1.55 0.00 78 1011.3
20260507043036 6 270 3.2 11.3 0.03 1.57 0.00 78 1011.2
20260507042016 6 293 4.8 14.5 0.03 1.60 0.00 80 1011.3
20260507041015 6 270 3.2 11.3 0.03 1.60 0.00 87 1011.0
20260507040016 6 270 3.2 9.7 0.03 1.63 1.63 91 1011.0
20260507035017 6 248 4.8 12.9 0.03 1.65 1.63 92 1010.9
20260507034017 6 270 1.6 9.7 0.00 1.63 1.60 93 1011.0
20260507033017 6 0.0 0.0 0.00 1.63 1.60 94 1010.8
20260507032017 6 0.0 0.0 0.00 1.63 1.60 94 1010.7
20260507031017 6 0.0 6.4 0.00 1.63 1.60 94 1010.7
20260507030017 6 248 1.6 4.8 0.00 1.65 1.60 95 1010.6
20260507025017 6 225 1.6 8.0 0.00 1.65 1.60 95 1010.7
20260507024017 6 270 1.6 8.0 0.00 1.65 1.60 95 1010.6
20260507023038 6 248 1.6 4.8 0.00 1.65 1.60 95 1010.6
20260507022017 6 225 1.6 6.4 0.00 1.65 1.60 95 1010.8
20260507021016 6 0.0 1.6 0.00 1.68 1.60 95 1010.9
20260507020037 6 0.0 3.2 0.00 1.68 1.60 95 1010.8
20260507015017 6 0.0 3.2 0.00 1.73 1.60 95 1010.5
20260507014037 6 0.0 3.2 0.00 1.75 1.60 95 1010.6
20260507013016 6 248 1.6 8.0 0.03 1.75 1.60 95 1010.7
20260507012017 6 270 1.6 6.4 0.03 1.75 1.60 94 1010.7
20260507011017 6 293 1.6 9.7 0.03 1.78 1.60 94 1010.6
20260507010017 6 270 3.2 11.3 0.03 1.78 1.60 94 1010.6
20260507005016 5 293 3.2 12.9 0.05 1.80 1.60 94 1010.5
20260507004016 5 293 3.2 8.0 0.05 1.83 1.60 93 1010.2
20260507003017 5 293 4.8 14.5 0.03 1.83 1.57 92 1010.2
20260507002058 6 293 8.0 16.1 0.03 1.85 1.57 90 1010.0
20260507001057 6 0.0 0.0 0.03 1.85 1.57 89 1009.9
20260507000037 7 315 1.6 6.4 0.03 1.88 1.57 89 1009.8
20260506235016 7 0.0 0.0 0.00 1.85 1.55 89 1009.6
20260506234017 7 0.0 0.0 0.00 1.88 1.55 89 1009.5
20260506233017 7 0.0 4.8 0.00 1.91 1.55 88 1009.3
20260506232017 8 0.0 0.0 0.00 1.93 1.55 87 1009.2
20260506231016 9 0.0 0.0 0.00 1.98 1.55 86 1009.0
20260506230016 9 0.0 0.0 0.00 1.98 1.55 85 1009.0
20260506225017 8 0.0 0.0 0.00 2.03 1.55 85 1008.7
20260506224037 8 0.0 0.0 0.00 2.06 1.55 86 1008.6
20260506223017 8 0.0 0.0 0.00 2.11 1.55 86 1008.5
20260506222016 8 0.0 0.0 0.00 2.11 1.55 86 1008.4
20260506221016 8 0.0 0.0 0.00 2.11 1.55 86 1008.5
20260506220016 8 0.0 0.0 0.00 2.11 1.55 85 1008.4
20260506215017 8 0.0 0.0 0.00 2.11 1.55 85 1008.5
20260506214037 8 0.0 0.0 0.00 2.11 1.55 84 1008.6
20260506213037 8 0.0 0.0 0.00 2.11 1.55 83 1008.6
20260506212017 8 0.0 0.0 0.00 2.11 1.55 83 1008.5
20260506211016 8 0.0 0.0 0.00 2.11 1.55 82 1008.6
20260506210016 8 0.0 4.8 0.00 2.11 1.55 82 1008.6
20260506205017 8 0.0 3.2 0.00 2.11 1.55 83 1008.6
20260506204016 8 0.0 1.6 0.00 2.11 1.55 83 1008.4
20260506203017 7 0.0 0.0 0.00 2.11 1.55 84 1008.4
20260506202016 7 0.0 0.0 0.00 2.11 1.55 84 1008.5
20260506201016 7 0.0 0.0 0.00 2.11 1.55 83 1008.6
20260506200016 7 0.0 1.6 0.00 2.11 1.55 83 1008.7
20260506195036 7 0.0 0.0 0.00 2.11 1.55 84 1008.6
20260506194037 7 0.0 0.0 0.00 2.11 1.55 85 1008.5
20260506193016 7 45 1.6 4.8 0.00 2.11 1.55 86 1008.5
20260506192017 7 45 1.6 4.8 0.00 2.11 1.55 86 1008.5
20260506191016 7 0.0 0.0 0.00 2.11 1.55 87 1008.7
20260506190016 7 0.0 3.2 0.00 2.11 1.55 87 1008.7
20260506185016 7 338 1.6 6.4 0.00 2.11 1.55 88 1008.6
20260506184017 7 23 1.6 8.0 0.00 2.11 1.55 90 1008.7
20260506183016 7 45 1.6 8.0 0.00 2.11 1.55 91 1008.5
20260506182016 7 293 3.2 11.3 0.00 2.11 1.55 93 1008.8
20260506181017 7 0 1.6 6.4 0.00 2.11 1.55 92 1009.0
20260506180016 7 338 1.6 8.0 0.00 2.11 1.55 93 1009.0
20260506175016 7 338 1.6 4.8 0.00 2.11 1.55 94 1008.7
20260506174016 6 338 3.2 8.0 0.00 2.11 1.55 94 1008.5
20260506173016 6 0.0 4.8 0.00 2.11 1.55 95 1008.3
20260506172036 6 338 1.6 8.0 0.00 2.11 1.55 95 1008.2
20260506171017 6 0.0 4.8 0.00 2.11 1.55 95 1008.1
20260506170057 6 0 1.6 6.4 0.00 2.11 1.55 95 1008.1
20260506165016 6 68 1.6 6.4 0.00 2.11 1.55 96 1007.9
20260506164016 6 0 4.8 9.7 0.03 2.11 1.55 95 1008.1
20260506163017 6 23 3.2 8.0 0.03 2.11 1.55 95 1008.0
20260506162036 6 338 1.6 6.4 0.03 2.11 1.55 96 1008.0
20260506161016 6 45 1.6 6.4 0.03 2.11 1.55 96 1008.0
20260506160016 6 23 1.6 8.0 0.03 2.11 1.55 96 1008.2
20260506155016 6 0 1.6 8.0 0.03 2.11 1.55 96 1008.1
20260506154016 6 0.0 6.4 0.00 2.08 1.52 96 1008.0
20260506153016 6 45 1.6 6.4 0.00 2.08 1.52 96 1007.9
20260506152037 6 23 1.6 6.4 0.00 2.08 1.52 96 1007.8
20260506151016 6 23 3.2 11.3 0.00 2.08 1.52 96 1007.9
20260506150056 6 68 1.6 6.4 0.00 2.08 1.52 96 1007.9
20260506145016 6 0.0 3.2 0.00 2.08 1.52 96 1007.7
20260506144016 6 45 1.6 6.4 0.03 2.08 1.52 96 1007.6
20260506143016 6 23 1.6 8.0 0.03 2.08 1.52 96 1007.6
20260506142016 6 23 1.6 11.3 0.03 2.08 1.52 96 1007.3
20260506141016 6 0.0 3.2 0.05 2.08 1.52 96 1007.4
20260506140016 6 0.0 3.2 0.05 2.08 1.52 96 1007.5
20260506135016 7 68 1.6 6.4 0.08 2.08 1.52 96 1007.3
20260506134017 7 0.0 1.6 0.05 2.06 1.50 96 1007.5
20260506133016 7 0.0 9.7 0.05 2.06 1.50 96 1007.2
20260506132016 7 0.0 3.2 0.05 2.06 1.50 96 1007.1
20260506131016 6 0.0 4.8 0.05 2.03 1.47 96 1007.1
20260506130016 6 0.0 4.8 0.08 2.03 1.47 96 1007.1
20260506125016 6 113 1.6 6.4 0.05 2.01 1.45 96 1007.2
20260506124016 6 0.0 3.2 0.05 2.01 1.45 96 1007.1
20260506123036 6 0.0 4.8 0.08 2.01 1.45 96 1007.2
20260506122016 6 90 1.6 6.4 0.08 2.01 1.45 96 1007.2
20260506121016 6 0.0 3.2 0.08 1.98 1.42 96 1007.2
20260506120017 6 0.0 3.2 0.05 1.96 1.40 96 1007.3
20260506115016 6 0.0 4.8 0.10 1.96 1.40 96 1007.3
20260506114016 6 0.0 3.2 0.13 1.96 1.40 96 1007.1
20260506113016 6 0.0 4.8 0.13 1.93 1.37 96 1007.0
20260506112036 6 90 3.2 16.1 0.15 1.93 1.37 96 1006.6
20260506111016 6 113 1.6 6.4 0.15 1.91 1.35 96 1006.7
20260506110016 6 0.0 3.2 0.20 1.91 1.35 96 1006.8
20260506105016 6 0.0 0.0 0.20 1.85 1.30 96 1007.1
20260506104036 6 0.0 1.6 0.20 1.83 1.27 96 1007.0
20260506103016 6 0.0 1.6 0.20 1.80 1.24 96 1007.3
20260506102016 6 0.0 1.6 0.18 1.78 1.22 96 1007.4
20260506101016 6 0.0 4.8 0.15 1.75 1.19 96 1007.4
20260506100016 6 0.0 0.0 0.10 1.70 1.14 96 1007.5
20260506095016 6 0.0 9.7 0.08 1.65 1.12 96 1007.4
20260506094057 7 0.0 3.2 0.08 1.63 1.07 96 1007.2
20260506093016 6 0.0 3.2 0.05 1.60 1.04 96 1007.1
20260506092016 7 0.0 3.2 0.08 1.60 1.04 96 1006.9
20260506091016 6 90 1.6 4.8 0.10 1.60 1.04 96 1006.8
20260506090016 6 90 1.6 6.4 0.13 1.60 1.04 96 1007.0
20260506085036 6 0.0 4.8 0.13 1.57 1.02 96 1007.4
20260506084016 6 0.0 4.8 0.15 1.55 0.99 96 1007.6
20260506083016 6 90 1.6 4.8 0.20 1.55 0.99 96 1007.2
20260506082016 6 113 1.6 4.8 0.20 1.52 0.97 96 1007.3
20260506081016 6 90 1.6 6.4 0.20 1.50 0.94 96 1007.5
20260506073016 7 0.0 0.0 0.18 1.35 0.79 96 1007.1
20260506072037 7 0.0 0.0 0.23 1.32 0.76 96 1007.3
20260506071016 7 0.0 0.0 0.25 1.30 0.74 96 1007.3
20260506062016 7 0.0 0.0 0.28 1.09 0.53 96 1008.4
20260506061016 7 0.0 0.0 0.25 1.04 0.48 96 1007.7